Location: Bassano
(45.7667°N, 11.7333°E)
Time: 00:17:09
(UTC+00:00)

ISS - Pass Details

Date: 10 March 2021
Orbit: 418 x 421 km, 51.6° (Epoch: 22 April)

Event Time Altitude Azimuth Distance (km) Brightness Sun altitude
Exits shadow 04:44:10 14° 281° (W) 1,300 -1.9 -9.7°
Maximum altitude 04:46:44 35° 218° (SW) 698 -3.0 -9.3°
Drops below altitude 10° 04:49:48 10° 151° (SSE) 1,491 -0.6 -8.7°
Sets 04:52:00 0° 142° (SE) 2,351 0.6 -8.3°
